Terug naar catalogus

USA 484

ActiefMilitairVLEO
NORAD 62553·PAYLOAD·🇺🇸 United States

Gelanceerd Jan 10, 2025 vanaf Vandenberg Space Force Base

Loading…

Volgende Passages (komende 24 uur)

TLE

VerouderdSource: Mike McCants

Epoch: Aug 26, 2026, 01:35 UTC

1 62553U 25005X   26238.06627079 0.00000000  00000-0  00000-0 0    04
2 62553  70.0144 226.3957 0002000 165.5945 194.4055 14.96713418    02

Volg USA 484 in realtime met AllMySat

Download on the App Store